{"data":{"norad_id":55661,"epoch":"2026-09-20T22:00:03.000096Z","epoch_age_seconds":67116,"freshness":"FRESH","line1":"1 55661U 23021AK  26263.91670139  .00010051  00000+0  68038-3 0  9990","line2":"2 55661  69.9997  32.1571 0005097 261.4327 303.0422 15.06733370  5711","mean_motion":15.0673337,"eccentricity":0.0005097,"inclination_deg":69.9997,"raan_deg":32.1571,"arg_perigee_deg":261.4327,"mean_anomaly_deg":303.0422,"bstar":0.00068038,"rev_number":571,"period_min":95.570990108223,"perigee_km":542.66068581192,"apogee_km":549.71934477131,"semimajor_km":6924.3270152916,"source":"CELESTRAK","updated_at":"2026-09-21T09:00:33.308007Z"}}